Santa Cruz Airport
SBSC : rendu visible

Aérodrome :











RETROUVEZ-NOUS SUR...

 
LOGIN :

S'inscrire | Disclaimer

   EN    FR    IT 

 









Légende :    VFR   VFR Marginal   IFR   IFR Intensif   IFR Très Intensif
Visi : 
Plafond : 
>= 8 km
>= 3000ft
5 à 8 km
1000 à 3000 ft
1500m à 5 km
500 à 1000 ft
800 à 1500m
200 à 500 ft
< 800m
< 200 ft
Symboles :   Orages  Brouillard  Fortes neiges  Fortes précipitations  Vent > 20 kt






- Altitude de l'aérodrome : 10 ft
- Code IATA : SNZ


SBSC - Santa Cruz

DERNIER METAR :
  • 301000Z 34008KT CAVOK 28/20 Q1012

METARs EXPIRÉS :
  • 300900Z 34011KT CAVOK 26/19 Q1012
  • 300800Z 36010KT CAVOK 26/20 Q1011

TAF TAF SBSC
Valide du 30 à 06h jusqu'au 30 à 18h UTC


300300Z 3006/3018 01007KT CAVOK TN23/3009Z TX35/3017Z
TEMPO 3016/3018 9999 SCT025 RMK PCX
FIR SBCW / Amérique du Sud



MET'MAP, la Météo Aéronautique d'un coup d'oeil ! - Copyright ORBIFLY Décembre 2007 - Disclaimer

ORBIFLY MET'MAP TEAM :

Programmation & Développement : Alexandra Zaïnal
Sur une idée originale de : Baudouin d'Aumeries
Assistance à la programmation : Marc-Olivier Méhu
Soutien technique & logistique : Manuel Goepfert

Contact : metmap@orbifly.com




SOURCES & CREDITS :

   NOAA       Earth
Advisory